"Pseudo-MPEC" for P22nuF6

Created 2026 Jun 17 18:35:07 UT using Find_Orb

Click here for an explanation of pseudo-MPECs

 
 Astrometry: 
     P22nuF6*0C2026 06 16.51683620 10 26.400-28 57 18.86   ~6GE5 20.37wXNEOCPF52
     P22nuF6 0C2026 06 16.52798720 10 26.213-28 57 10.67   ~6GE5 20.50wXNEOCPF52
     P22nuF6 0C2026 06 16.53919420 10 26.022-28 57 02.19   ~6GE5 20.27wXNEOCPF52
     P22nuF6 0C2026 06 16.55043520 10 25.822-28 56 53.89   ~6GE5 20.23wXNEOCPF52
     P22nuF6 0C2026 06 16.58944620 10 25.172-28 56 24.56   ~6GGo 20.19GVNEOCPF51
     P22nuF6 0C2026 06 16.59009320 10 25.164-28 56 24.02   ~6GGo 20.13GVNEOCPF51
     P22nuF6 2C2026 06 17.10384420 10 18.669-28 49 58.57   ~6HAo 20.4 GWNEOCPJ04
     P22nuF6 2C2026 06 17.10824420 10 18.581-28 49 55.30   ~6HAo 20.3 GWNEOCPJ04
     P22nuF6 2C2026 06 17.11265020 10 18.509-28 49 52.05   ~6HAo 20.3 GWNEOCPJ04
     P22nuF6 KB2026 06 17.25398920 10 16.162-28 47 58.21   ~6HB5 20.6 VZNEOCPY05
     P22nuF6 KB2026 06 17.26836320 10 15.951-28 47 47.49   ~6HB5 20.0 VZNEOCPY05
     P22nuF6 KB2026 06 17.28201820 10 15.712-28 47 37.46   ~6HB5 20.2 VZNEOCPY05
     P22nuF6 1C2026 06 17.43388020 10 13.700-28 45 49.50   ~6HBZ 19.3 RVNEOCP691
     P22nuF6 1C2026 06 17.44017020 10 13.500-28 45 44.90   ~6HBZ 19.1 RVNEOCP691
     P22nuF6 1C2026 06 17.44647120 10 13.420-28 45 40.00   ~6HBZ 20.0 RVNEOCP691

Station data:
(691) Steward Observatory, Kitt Peak - Spacewatch  (N31.962174 W111.600327)
   US/Arizona.  Observer J. V. Scotti. 0.9-m f/3 reflector + CCD.
(F51) Pan-STARRS 1, Haleakala  (N20.707234 W156.255910)  US/Hawaii.
   Observers J. Herman, T. Lowe, P. Minguez, A. Schultz, I. Smith. Measurers
   K. Chambers, T. de Boer, J. Fairlamb, H. Gao, M. Huber, C.-C. Lin, E.
   Magnier, Y. Ramanjooloo, R. Wainscoat, R. Weryk. 1.8-m Ritchey-Chrétien +
   CCD.
(F52) Pan-STARRS 2, Haleakala  (N20.707382 W156.255910)  US/Hawaii.
   Observers J. Herman, T. Lowe, P. Minguez, A. Schultz, I. Smith. Measurers
   K. Chambers, T. de Boer, J. Fairlamb, H. Gao, M. Huber, C.-C. Lin, E.
   Magnier, Y. Ramanjooloo, R. Wainscoat, R. Weryk. 1.8-m Ritchey-Chrétien +
   CCD.
(J04) ESA Optical Ground Station, Tenerife  (N28.300957 W16.511820)  Canary
   Islands (Spain).  Observer M. Micheli. Measurers M. Micheli, D. Koschny,
   E. Schwab, M. Busch, A. Knöfel. 1.0-m f/4.4 reflector + CCD.
(Y05) SONEAR Wykrota-CEAMIG, Serra da Piedade  (S19.824251 W43.690000)
   Brazil.  Observer C. Jacques. 0.45-m f/2.9 reflector + CMO.

Orbital elements:  P22nuF6
   Perihelion 2026 Sep 20.227598 +/- 54 TT =  5:27:44.4 (JD 2461303.727598)
Epoch 2026 Jun 17.0 TT = JDT 2461208.5   Earth MOID: 0.6600      AutoNEOCP
M 341.676690827 +/- 10              (J2000 ecliptic)
n   0.192415955 +/- 0.0572          Peri.   36.251056 +/- 31
a   2.971497217 +/- 0.589           Node   293.665725 +/- 1.4
e   0.44791051 +/- 0.0841           Incl.   18.539338 +/- 2.3
P   5.12228                H 18.21  G  0.15   U 10.8  SR
q 1.640532371 +/- 0.159    Q 4.302462064 +/- 1.74
From 15 observations 2026 June 16-17 (22.3 hr); mean residual 0".31
Residuals in arcseconds: 
260616 F52  .02+  .03+    260616 F51  .07+  .01-    260617 Y05  .11-  .33+    
260616 F52  .03+  .06-    260617 J04  .09-  .30+    260617 Y05  .10+  .11-    
260616 F52  .01+  .06+    260617 J04  .20-  .28+    260617 691  .86+  .26-    
260616 F52  .11-  .04-    260617 J04  .10-  .23+    260617 691  .22-  .47-    
260616 F51  .03+  .06-    260617 Y05  .87-  .59+    260617 691  .29+  .39-    

Ephemerides (geocentric):
Date (UTC) HH   RA             Dec           delta  r     elong  mag " sig PA
---- --------  ------------   ------------  ------ ------ -----  --- --------
2026 06 17 19  20 10 08.232   -28 41 07.77  .90201 1.8383 146.8 20.2 1.50  20
2026 06 17 20  20 10 07.572   -28 40 35.84  .90164 1.8381 146.8 20.2 1.66  20
2026 06 17 21  20 10 06.908   -28 40 03.89  .90127 1.8379 146.9 20.2 1.83  20
2026 06 17 22  20 10 06.239   -28 39 31.91  .90089 1.8378 146.9 20.2 2.01  20
2026 06 17 23  20 10 05.567   -28 38 59.90  .90052 1.8376 147.0 20.2 2.20  20
2026 06 18 00  20 10 04.889   -28 38 27.86  .90015 1.8375 147.0 20.2 2.40  20
2026 06 18 01  20 10 04.208   -28 37 55.79  .89978 1.8373 147.0 20.2 2.60  20
2026 06 18 02  20 10 03.522   -28 37 23.70  .89941 1.8372 147.1 20.2 2.82  20
2026 06 18 03  20 10 02.832   -28 36 51.58  .89904 1.8370 147.1 20.2 3.05  20
2026 06 18 04  20 10 02.137   -28 36 19.43  .89867 1.8368 147.2 20.2 3.28  19
2026 06 18 05  20 10 01.438   -28 35 47.26  .89830 1.8367 147.2 20.2 3.53  19
2026 06 18 06  20 10 00.735   -28 35 15.06  .89793 1.8365 147.2 20.2 3.78  19
2026 06 18 07  20 10 00.027   -28 34 42.83  .89756 1.8364 147.3 20.2 4.04  19
2026 06 18 08  20 09 59.315   -28 34 10.57  .89719 1.8362 147.3 20.2 4.31  19
2026 06 18 09  20 09 58.599   -28 33 38.29  .89682 1.8360 147.4 20.2 4.59  19
2026 06 18 10  20 09 57.878   -28 33 05.97  .89645 1.8359 147.4 20.2 4.88  19
2026 06 18 11  20 09 57.153   -28 32 33.63  .89608 1.8357 147.4 20.2 5.18  19
2026 06 18 12  20 09 56.424   -28 32 01.27  .89571 1.8356 147.5 20.2 5.48  19
2026 06 18 13  20 09 55.690   -28 31 28.87  .89534 1.8354 147.5 20.2 5.80  18
2026 06 18 14  20 09 54.952   -28 30 56.45  .89498 1.8353 147.6 20.2 6.12  18
2026 06 18 15  20 09 54.210   -28 30 24.00  .89461 1.8351 147.6 20.2 6.46  18
2026 06 18 16  20 09 53.463   -28 29 51.52  .89424 1.8349 147.6 20.2 6.80  18
2026 06 18 17  20 09 52.712   -28 29 19.02  .89387 1.8348 147.7 20.2 7.15  18
2026 06 18 18  20 09 51.956   -28 28 46.49  .89351 1.8346 147.7 20.2 7.51  18
2026 06 18 19  20 09 51.196   -28 28 13.92  .89314 1.8345 147.8 20.2 7.88  18
2026 06 18 20  20 09 50.432   -28 27 41.34  .89278 1.8343 147.8 20.2 8.25  18
2026 06 18 21  20 09 49.664   -28 27 08.72  .89241 1.8342 147.9 20.2 8.64  18
2026 06 18 22  20 09 48.891   -28 26 36.08  .89205 1.8340 147.9 20.2 9.04  18
2026 06 18 23  20 09 48.114   -28 26 03.40  .89168 1.8339 147.9 20.2 9.44  18
2026 06 19 00  20 09 47.332   -28 25 30.71  .89132 1.8337 148.0 20.2 9.85  18
2026 06 19 01  20 09 46.547   -28 24 57.98  .89095 1.8335 148.0 20.2 10.3  18
2026 06 19 02  20 09 45.757   -28 24 25.22  .89059 1.8334 148.1 20.2 10.7  18
2026 06 19 03  20 09 44.962   -28 23 52.44  .89022 1.8332 148.1 20.2 11.1  18
2026 06 19 04  20 09 44.163   -28 23 19.63  .88986 1.8331 148.1 20.2 11.6  18
2026 06 19 05  20 09 43.360   -28 22 46.79  .88950 1.8329 148.2 20.2 12.1  18
2026 06 19 06  20 09 42.553   -28 22 13.92  .88913 1.8328 148.2 20.2 12.5  18
2026 06 19 07  20 09 41.741   -28 21 41.03  .88877 1.8326 148.3 20.2 13.0  18
2026 06 19 08  20 09 40.925   -28 21 08.10  .88841 1.8324 148.3 20.2 13.5  18
2026 06 19 09  20 09 40.105   -28 20 35.15  .88805 1.8323 148.4 20.2 14.0  18
2026 06 19 10  20 09 39.280   -28 20 02.17  .88769 1.8321 148.4 20.2 14.5  18
2026 06 19 11  20 09 38.451   -28 19 29.17  .88732 1.8320 148.4 20.2 15.0  18
2026 06 19 12  20 09 37.618   -28 18 56.13  .88696 1.8318 148.5 20.2 15.5  18
2026 06 19 13  20 09 36.780   -28 18 23.07  .88660 1.8317 148.5 20.2 16.1  18
2026 06 19 14  20 09 35.938   -28 17 49.98  .88624 1.8315 148.6 20.2 16.6  18
2026 06 19 15  20 09 35.092   -28 17 16.86  .88588 1.8314 148.6 20.2 17.1  18
2026 06 19 16  20 09 34.241   -28 16 43.71  .88552 1.8312 148.6 20.2 17.7  18
2026 06 19 17  20 09 33.387   -28 16 10.53  .88516 1.8310 148.7 20.2 18.3  18
2026 06 19 18  20 09 32.527   -28 15 37.33  .88480 1.8309 148.7 20.2 18.8  18